Location: Lancaster
(34.6980°N, 118.1360°W)
Time: 12:47:33
(UTC-07:00)

STARS - Visible Passes

Search period start: 16 July 2018 00:00
Search period end: 26 July 2018 00:00
Orbit: 625 x 641 km, 98.3° (Epoch: 16 July)

Date Brightness Start Highest point End Pass type
(mag) Time Alt. Az. Time Alt. Az. Time Alt. Az.
18 Jul ? 20:28:48 10° NNW 20:32:10 22° WNW 20:35:30 10° WSW visible
19 Jul ? 20:51:11 10° NW 20:53:12 13° WNW 20:55:13 10° W visible
23 Jul ? 20:39:05 10° NNW 20:41:59 18° WNW 20:44:53 10° WSW visible
24 Jul ? 21:02:23 10° NW 21:02:59 10° WNW 21:03:36 10° WNW visible
